Location: Unspecified
(0.0000°N, 0.0000°E)
Time: 08:15:33
(UTC+00:00)

Transit 2A Rocket - All Passes

Search period start: 08 February 2023 00:00
Search period end: 18 February 2023 00:00
Orbit: 585 x 915 km, 66.7° (Epoch: 07 February)

Date Brightness Start Highest point End Pass type
(mag) Time Alt. Az. Time Alt. Az. Time Alt. Az.
08 Feb - 07:29:23 10° NE 07:31:17 11° ENE 07:33:08 10° E daylight
08 Feb - 09:07:58 10° NNW 09:13:47 55° WSW 09:19:16 10° S daylight
08 Feb - 19:56:56 10° SSE 20:00:15 21° ESE 20:03:43 10° ENE visible
08 Feb - 21:39:40 10° WSW 21:42:30 16° WNW 21:45:27 10° NNW night (unlit)
09 Feb - 08:24:49 10° NNW 08:30:48 74° ENE 08:36:24 10° SSE daylight
09 Feb - 20:55:20 10° SW 20:59:25 38° WNW 21:03:48 10° N visible
10 Feb - 07:42:19 10° N 07:47:45 36° ENE 07:52:53 10° SE daylight
10 Feb - 09:26:13 10° WNW 09:30:00 18° WSW 09:33:40 10° SSW daylight
10 Feb - 20:12:01 10° SSW 20:16:24 87° ESE 20:21:08 10° NNE visible
11 Feb - 07:00:43 10° NNE 07:04:38 18° ENE 07:08:25 10° ESE daylight
11 Feb - 08:41:41 10° NW 08:47:03 36° WSW 08:52:07 10° S daylight
11 Feb - 19:29:26 10° S 19:33:27 35° ESE 19:37:42 10° NE visible
12 Feb - 07:58:07 10° NNW 08:04:04 74° WSW 08:09:38 10° SSE daylight
12 Feb - 18:47:58 10° SE 18:50:31 15° ESE 18:53:07 10° ENE visible
12 Feb - 20:29:08 10° WSW 20:32:41 23° WNW 20:36:27 10° NNW visible
13 Feb - 07:15:13 10° N 07:21:03 55° ENE 07:26:30 10° SSE daylight
13 Feb - 09:01:51 10° W 09:03:15 11° WSW 09:04:38 10° WSW daylight
13 Feb - 19:45:18 10° SSW 19:49:37 55° WNW 19:54:17 10° N visible
14 Feb - 06:33:02 10° NNE 06:37:58 27° ENE 06:42:40 10° SE daylight
14 Feb - 08:15:42 10° WNW 08:20:17 24° WSW 08:24:38 10° SSW daylight
14 Feb - 19:02:17 10° S 19:06:37 60° ESE 19:11:18 10° NNE visible
15 Feb - 05:52:11 10° NE 05:54:49 13° ENE 05:57:24 10° E visible
15 Feb - 07:31:37 10° NW 07:37:18 48° WSW 07:42:38 10° S daylight
15 Feb - 18:20:03 10° SSE 18:23:41 25° ESE 18:27:29 10° NE daylight
15 Feb - 20:03:28 10° WSW 20:05:58 15° WNW 20:08:34 10° NW visible
16 Feb - 06:48:21 10° NNW 06:54:19 83° ENE 06:59:52 10° SSE daylight
16 Feb - 17:40:04 10° ESE 17:40:44 10° ESE 17:41:24 10° E daylight
16 Feb - 19:18:50 10° SW 19:22:51 33° WNW 19:27:09 10° N visible
17 Feb - 06:05:43 10° N 06:11:15 40° ENE 06:16:28 10° SE daylight
17 Feb - 07:50:15 10° WNW 07:53:29 15° WSW 07:56:36 10° SW daylight
17 Feb - 18:35:23 10° SSW 18:39:48 81° WNW 18:44:36 10° NNE visible
